"Index",".RFTREES1",".TRX50ZEPE"
"2005-03-31",100,87.1
"2005-04-01",100,87.17
"2005-04-04",99.3804,86.71
"2005-04-05",100.1633,87.47
"2005-04-06",100.7659,87.74
"2005-04-07",101.0558,88.16
"2005-04-08",101.3057,88.12
"2005-04-11",101.1233,87.81
"2005-04-12",100.6408,87.37
"2005-04-13",100.8277,87.78
"2005-04-14",100.5476,87.72
"2005-04-15",98.6081,86.12
"2005-04-18",96.5159,84.28
"2005-04-19",96.9442,84.5
"2005-04-20",96.6836,84.15
"2005-04-21",96.9506,84.29
"2005-04-22",97.4779,85.12
"2005-04-25",97.6563,85.39
"2005-04-26",97.4037,85.3
"2005-04-27",95.7689,84.28
"2005-04-28",95.349,83.86
"2005-04-29",95.5107,83.93
"2005-05-02",96.0956,84.38
"2005-05-03",96.6231,84.77
"2005-05-04",97.1527,85.34
"2005-05-05",97.7126,86.03
"2005-05-06",98.0165,86.5
"2005-05-09",97.7993,86.14
"2005-05-10",97.1275,85.5
"2005-05-11",97.0701,85.19
"2005-05-12",97.3655,85.79
"2005-05-13",97.7327,85.78
"2005-05-16",97.5054,85.58
"2005-05-17",97.2647,85.47
"2005-05-18",98.8382,86.83
"2005-05-19",99.2743,87.25
"2005-05-20",99.4589,87.31
"2005-05-23",100.202,88.01
"2005-05-24",99.9065,87.84
"2005-05-25",100.0983,87.72
"2005-05-26",100.8181,88.45
"2005-05-27",100.8353,88.38
"2005-05-30",101.3697,88.75
"2005-05-31",101.0619,88.25
"2005-06-01",102.6244,89.53
"2005-06-02",102.8678,89.72
"2005-06-03",102.3234,89.35
"2005-06-06",101.8419,88.96
"2005-06-07",102.9762,89.86
"2005-06-08",102.9841,89.55
"2005-06-09",102.8607,89.47
"2005-06-10",103.5718,90.05
"2005-06-13",103.7146,90.45
"2005-06-14",103.7258,90.59
"2005-06-15",103.1567,90.01
"2005-06-16",103.7072,90.38
"2005-06-17",104.0679,90.81
"2005-06-20",103.5737,90.36
"2005-06-21",104.1814,90.48
"2005-06-22",104.4342,90.57
"2005-06-23",104.6998,91.08
"2005-06-24",103.8274,90.31
"2005-06-27",102.8049,89.5
"2005-06-28",103.5742,90.45
"2005-06-29",104.1214,90.89
"2005-06-30",104.1961,91.01
"2005-07-01",105.2016,91.74
"2005-07-04",105.0551,91.98
"2005-07-05",104.859,91.72
"2005-07-06",105.2919,92.22
"2005-07-07",103.6503,90.68
"2005-07-08",105.0647,92.27
"2005-07-11",105.8126,92.81
"2005-07-12",105.5765,92.65
"2005-07-13",106.2805,93.29
"2005-07-14",106.8755,93.82
"2005-07-15",106.8536,93.86
"2005-07-18",106.6214,93.78
"2005-07-19",108.1168,94.8
"2005-07-20",108.0614,94.44
"2005-07-21",108.3921,94.22
"2005-07-22",108.3902,93.96
"2005-07-25",108.2562,94.15
"2005-07-26",108.2219,94.45
"2005-07-27",108.6691,94.56
"2005-07-28",108.9654,94.98
"2005-07-29",108.7096,95.03
"2005-08-01",108.8708,94.97
"2005-08-02",109.587,95.71
"2005-08-03",109.5979,95.63
"2005-08-04",108.7048,94.74
"2005-08-05",107.9781,94
"2005-08-08",108.1892,94.38
"2005-08-09",108.9198,95.48
"2005-08-10",109.9666,96.57
"2005-08-11",109.3279,96.18
"2005-08-12",108.5274,95.63
"2005-08-15",108.3008,95.48
"2005-08-16",107.6395,94.8
"2005-08-17",107.5906,94.51
"2005-08-18",107.0244,94.26
"2005-08-19",108.1637,95.41
"2005-08-22",108.3554,95.39
"2005-08-23",107.6853,94.63
"2005-08-24",107.4437,94.47
"2005-08-25",106.6431,93.49
"2005-08-26",105.8655,92.61
"2005-08-29",106.1225,92.93
"2005-08-30",106.0135,92.87
"2005-08-31",107.0096,93.75
"2005-09-01",107.4243,94.32
"2005-09-02",107.2601,94.16
"2005-09-05",107.9068,94.89
"2005-09-06",108.7878,95.77
"2005-09-07",109.0752,95.86
"2005-09-08",108.8136,95.71
"2005-09-09",109.3671,96.08
"2005-09-12",109.5183,96.02
"2005-09-13",109.0319,95.24
"2005-09-14",109.3524,95.59
"2005-09-15",109.3146,95.74
"2005-09-16",110.1442,96.53
"2005-09-19",110.0218,96.48
"2005-09-20",110.3713,96.93
"2005-09-21",109.3719,95.67
"2005-09-22",108.5325,95.47
"2005-09-23",109.1971,95.73
"2005-09-26",110.8596,97.56
"2005-09-27",110.3898,97.12
"2005-09-28",111.3174,98.32
"2005-09-29",110.9491,97.99
"2005-09-30",111.7476,98.41
"2005-10-03",112.5021,98.97
"2005-10-04",113.1014,99.24
"2005-10-05",111.889,97.96
"2005-10-06",110.5238,96.73
"2005-10-07",110.1206,96.44
"2005-10-10",110.4133,96.62
"2005-10-11",110.3939,96.79
"2005-10-12",109.4317,96.03
"2005-10-13",108.1423,95.23
"2005-10-14",108.7355,95.64
"2005-10-17",108.6049,95.96
"2005-10-18",108.0768,95.27
"2005-10-19",106.2076,93.69
"2005-10-20",106.3489,93.91
"2005-10-21",105.9939,93.35
"2005-10-24",107.2065,94.54
"2005-10-25",106.8094,94.05
"2005-10-26",107.0317,94.45
"2005-10-27",105.2884,92.89
"2005-10-28",105.2254,93.05
"2005-10-31",107.2685,95.11
"2005-11-01",107.1801,94.93
"2005-11-02",107.5941,95.12
"2005-11-03",108.5442,96.26
"2005-11-04",108.4181,96.1
"2005-11-07",108.8404,96.26
"2005-11-08",108.877,96.25
"2005-11-09",109.1228,96.11
"2005-11-10",108.9239,96.11
"2005-11-11",110.0525,97.18
"2005-11-14",110.3317,97.43
"2005-11-15",110.0401,97.49
"2005-11-16",109.3396,96.86
"2005-11-17",109.6646,97.31
"2005-11-18",110.2026,97.96
"2005-11-21",110.4089,98.64
"2005-11-22",110.3123,98.77
"2005-11-23",110.9005,99.26
"2005-11-24",110.7576,98.87
"2005-11-25",111.0758,99.06
"2005-11-28",110.5774,98.62
"2005-11-29",111.1035,98.88
"2005-11-30",110.6819,98.31
"2005-12-01",112.3479,99.87
"2005-12-02",112.9451,100.49
"2005-12-05",112.4136,99.97
"2005-12-06",113.2169,100.44
"2005-12-07",113.056,100.14
"2005-12-08",113.0969,100.27
"2005-12-09",112.659,99.97
"2005-12-12",112.7944,100.18
"2005-12-13",112.824,100.68
"2005-12-14",112.5954,100.36
"2005-12-15",112.5783,100.35
"2005-12-16",113.3835,101.24
"2005-12-19",113.0753,100.97
"2005-12-20",112.9012,101.19
"2005-12-21",113.8874,102.1
"2005-12-22",113.79,102.03
"2005-12-23",114.0716,102.22
"2005-12-23",114.0716,102.22
"2005-12-27",114.4794,102.13
"2005-12-28",114.2309,102.29
"2005-12-29",114.4755,102.58
"2005-12-30",113.7112,101.6
"2006-01-02",114.4808,102.28
"2006-01-03",114.8001,102.64
"2006-01-04",115.7307,103.64
"2006-01-05",115.5586,103.52
"2006-01-06",116.1112,104
"2006-01-09",116.5105,104.18
"2006-01-10",115.7174,103.47
"2006-01-11",116.4258,104.1
"2006-01-12",116.6868,104.25
"2006-01-13",115.7318,103.09
"2006-01-16",116.2127,103.63
"2006-01-17",115.0395,102.7
"2006-01-18",114.3617,101.65
"2006-01-19",115.4302,102.01
"2006-01-20",114.3252,101.05
"2006-01-23",114.2117,100.84
"2006-01-24",113.9944,100.59
"2006-01-25",114.9293,101.82
"2006-01-26",116.4506,103.51
"2006-01-27",118.2766,104.83
"2006-01-30",118.3947,104.78
"2006-01-31",118.0717,105.18
"2006-02-01",119.3138,106.13
"2006-02-02",118.172,104.6
"2006-02-03",118.4675,104.49
"2006-02-06",118.9786,104.62
"2006-02-07",118.9064,104.42
"2006-02-08",118.9427,104.07
"2006-02-09",119.7634,105.5
"2006-02-10",118.9405,104.56
"2006-02-13",119.5311,105.37
"2006-02-14",119.523,105.43
"2006-02-15",119.6605,105.4
"2006-02-16",120.2819,105.99
"2006-02-17",120.5632,106.35
"2006-02-20",120.6294,106.37
"2006-02-21",120.9932,106.72
"2006-02-22",121.5241,107.63
"2006-02-23",121.1345,107.45
"2006-02-24",121.3402,107.79
"2006-02-27",121.5957,108.2
"2006-02-28",119.8266,106.36
"2006-03-01",121.2555,107.34
"2006-03-02",120.2304,106.16
"2006-03-03",119.9925,105.42
"2006-03-06",120.6646,105.87
"2006-03-07",120.0939,105.6
"2006-03-08",119.2753,105.14
"2006-03-09",120.2664,105.97
"2006-03-10",121.402,107.03
"2006-03-13",121.8563,107.69
"2006-03-14",121.9871,107.94
"2006-03-15",122.3938,108.16
"2006-03-16",122.5937,107.98
"2006-03-17",122.9914,107.75
"2006-03-20",123.3045,107.93
"2006-03-21",123.6319,108
"2006-03-22",124.0085,108.5
"2006-03-23",124.5082,108.26
"2006-03-24",124.5989,108.65
"2006-03-27",123.6667,107.52
"2006-03-28",122.957,107.13
"2006-03-29",123.4501,107.64
"2006-03-30",124.5947,108.95
"2006-03-31",124.1408,108.37
"2006-04-03",124.9724,109.05
"2006-04-04",124.4676,108.29
"2006-04-05",124.871,108.68
"2006-04-06",125.4338,108.67
"2006-04-07",124.3864,107.9
"2006-04-10",124.7909,108.52
"2006-04-11",123.3703,107.18
"2006-04-12",122.8316,106.82
"2006-04-13",123.1565,106.84
"2006-04-13",123.1565,106.84
"2006-04-13",123.1565,106.84
"2006-04-18",123.0021,106.74
"2006-04-19",124.6809,108.07
"2006-04-20",125.9016,109.03
"2006-04-21",127.1483,109.84
"2006-04-24",126.8194,109.26
"2006-04-25",126.8672,109.34
"2006-04-26",126.889,109.72
"2006-04-27",126.2959,109.13
"2006-04-28",125.6549,108.31
"2006-04-28",125.6549,108.31
"2006-05-02",126.455,109.01
"2006-05-03",125.8745,107.9
"2006-05-04",126.9729,108.45
"2006-05-05",128.1268,109.2
"2006-05-08",127.9988,109.2
"2006-05-09",128.1094,109.55
"2006-05-10",127.8102,108.67
"2006-05-11",126.8074,108.1
"2006-05-12",123.996,105.7
"2006-05-15",122.2316,104.6
"2006-05-16",122.2541,105.09
"2006-05-17",118.6992,101.77
"2006-05-18",118.1997,101.61
"2006-05-19",118.2524,102.19
"2006-05-22",114.8035,99.91
"2006-05-23",117.8686,102.03
"2006-05-24",116.9819,100.7
"2006-05-25",118.282,102.39
"2006-05-26",120.2721,104.09
"2006-05-29",120.0511,103.57
"2006-05-30",117.8097,101.25
"2006-05-31",119.0389,102.35
"2006-06-01",119.7643,102.67
"2006-06-02",119.8137,102.34
"2006-06-05",119.0553,101.61
"2006-06-06",116.6704,99.54
"2006-06-07",117.5138,100.36
"2006-06-08",114.2653,97.66
"2006-06-09",115.7584,99.21
"2006-06-12",114.8896,98.13
"2006-06-13",112.6059,96.16
"2006-06-14",112.6555,96.27
"2006-06-15",114.944,98.38
"2006-06-16",114.3361,97.66
"2006-06-19",115.1366,98.28
"2006-06-20",115.5309,98.95
"2006-06-21",115.7682,99.26
"2006-06-22",116.521,99.83
"2006-06-23",116.6386,100.09
"2006-06-26",116.5263,99.73
"2006-06-27",115.6518,98.97
"2006-06-28",115.5402,99.07
"2006-06-29",117.6588,101.1
"2006-06-30",119.2957,102.94
"2006-07-03",119.8999,103.33
"2006-07-04",120.0886,103.47
"2006-07-05",118.8583,102.09
"2006-07-06",119.8905,103.21
"2006-07-07",119.3884,103.01
"2006-07-10",119.785,103.42
"2006-07-11",118.3712,102.21
"2006-07-12",119.05,102.57
"2006-07-13",117.244,100.74
"2006-07-14",115.6434,99.4
"2006-07-17",115.1518,99.09
"2006-07-18",115.023,98.9
"2006-07-19",117.7797,101.27
"2006-07-20",118.2204,101.49
"2006-07-21",116.5533,100.63
"2006-07-24",118.7446,102.61
"2006-07-25",118.8545,102.62
"2006-07-26",118.99,103.11
"2006-07-27",119.8935,104.31
"2006-07-28",120.6662,105.05
"2006-07-31",120.2589,104.51
"2006-08-01",119.2379,103.2
"2006-08-02",120.4931,104.56
"2006-08-03",119.6711,103.63
"2006-08-04",120.7933,104.97
"2006-08-07",119.2561,103.43
"2006-08-08",119.0329,103.58
"2006-08-09",119.8183,104.69
"2006-08-10",118.9623,103.88
"2006-08-11",119.15,103.88
"2006-08-14",120.2333,104.96
"2006-08-15",121.2414,106.18
"2006-08-16",122.2262,106.78
"2006-08-17",122.551,106.88
"2006-08-18",122.4688,106.76
"2006-08-21",121.9964,106.46
"2006-08-22",122.6426,106.84
"2006-08-23",121.8238,106.01
"2006-08-24",122.356,106.66
"2006-08-25",122.3102,106.61
"2006-08-28",123.1427,107.31
"2006-08-29",123.2493,107.16
"2006-08-30",123.6255,107.44
"2006-08-31",123.3835,107.17
"2006-09-01",123.7847,107.51
"2006-09-04",124.3544,107.88
"2006-09-05",123.8182,107.38
"2006-09-06",122.6855,106.1
"2006-09-07",121.8577,105.23
"2006-09-08",122.3754,105.4
"2006-09-11",122.0417,105.06
"2006-09-12",123.5419,106.21
"2006-09-13",124.0307,106.61
"2006-09-14",123.9992,106.42
"2006-09-15",124.6329,106.74
"2006-09-18",124.508,106.73
"2006-09-19",123.6695,106.08
"2006-09-20",124.9811,107.51
"2006-09-21",125.3646,107.84
"2006-09-22",124.2731,106.72
"2006-09-25",124.1284,106.86
"2006-09-26",125.7004,108.26
"2006-09-27",127.078,108.96
"2006-09-28",127.1928,109.05
"2006-09-29",127.5559,109.18
"2006-10-02",127.1353,108.9
"2006-10-03",126.8866,108.51
"2006-10-04",127.3711,109.35
"2006-10-05",128.0099,110.1
"2006-10-06",127.9407,110.2
"2006-10-09",128.0764,110.31
"2006-10-10",128.685,110.89
"2006-10-11",129.2509,111.03
"2006-10-12",130.1273,111.87
"2006-10-13",130.4672,111.99
"2006-10-16",130.8178,112.14
"2006-10-17",129.3912,110.94
"2006-10-18",130.4479,112.03
"2006-10-19",130.5541,111.84
"2006-10-20",130.8965,112.15
"2006-10-23",131.4185,112.72
"2006-10-24",131.442,112.66
"2006-10-25",132.0131,112.83
"2006-10-26",132.2702,113.19
"2006-10-27",131.9654,112.89
"2006-10-30",131.4088,112.45
"2006-10-31",131.5925,112.39
"2006-11-01",131.8523,112.58
"2006-11-02",131.1826,111.56
"2006-11-03",131.8014,112.07
"2006-11-06",133.0932,113.54
"2006-11-07",133.5218,114.32
"2006-11-08",133.6764,114.45
"2006-11-09",134.0269,114.44
"2006-11-10",134.0698,114.28
"2006-11-13",134.5771,114.79
"2006-11-14",134.3073,114.74
"2006-11-15",135.1664,115.33
"2006-11-16",135.6628,115.37
"2006-11-17",134.396,114.31
"2006-11-20",134.7167,114.71
"2006-11-21",134.8246,114.77
"2006-11-22",135.0304,114.73
"2006-11-23",134.3876,114.58
"2006-11-24",133.5374,113.47
"2006-11-27",131.5148,111.68
"2006-11-28",130.9954,111.54
"2006-11-29",133.0374,112.83
"2006-11-30",131.9124,111.88
"2006-12-01",130.8116,110.45
"2006-12-04",131.3617,111.12
"2006-12-05",132.6239,112.41
"2006-12-06",132.5391,112.25
"2006-12-07",133.1532,112.73
"2006-12-08",133.134,112.72
"2006-12-11",133.7269,113.58
"2006-12-12",134.0171,113.65
"2006-12-13",135.2434,114.54
"2006-12-14",135.7948,115.22
"2006-12-15",136.4181,115.81
"2006-12-18",136.3262,115.5
"2006-12-19",135.4802,114.69
"2006-12-20",135.988,115.11
"2006-12-21",135.6291,114.9
"2006-12-22",134.5201,113.87
"2006-12-22",134.5201,113.87
"2006-12-22",134.5201,113.87
"2006-12-27",136.0735,115.48
"2006-12-28",136.0481,115.47
"2006-12-29",135.8593,115.22
"2006-12-29",135.8593,115.22
"2007-01-02",137.426,116.85
"2007-01-03",137.3152,116.96
"2007-01-04",136.7742,116.55
"2007-01-05",135.6958,115.11
"2007-01-08",135.906,114.99
"2007-01-09",136.3469,115.09
"2007-01-10",135.6789,114.04
"2007-01-11",137.5836,116.03
"2007-01-12",138.1962,116.28
"2007-01-15",138.6551,116.76
"2007-01-16",138.3078,116.26
"2007-01-17",137.8335,115.63
"2007-01-18",137.8873,115.48
"2007-01-19",139.0308,116.38
"2007-01-22",138.4991,115.55
"2007-01-23",137.8949,115.56
"2007-01-24",139.4341,116.87
"2007-01-25",138.8558,116.57
"2007-01-26",138.1626,115.86
"2007-01-29",138.6633,116.27
"2007-01-30",139.2404,117.04
"2007-01-31",138.6044,116.56
"2007-02-01",139.8462,117.64
"2007-02-02",139.9972,118.02
"2007-02-05",140.0787,118.09
"2007-02-06",140.097,118.17
"2007-02-07",140.8563,118.61
"2007-02-08",140.0084,117.84
"2007-02-09",140.6548,118.4
"2007-02-12",139.7138,117.47
"2007-02-13",140.4049,118.14
"2007-02-14",141.4215,119.04
"2007-02-15",141.4837,118.84
"2007-02-16",141.2335,118.51
"2007-02-19",141.9129,119.04
"2007-02-20",141.3392,118.51
"2007-02-21",140.7837,118.01
"2007-02-22",141.5475,118.35
"2007-02-23",141.9655,118.52
"2007-02-26",142.7369,119.44
"2007-02-27",138.162,116.32
"2007-02-28",136.5253,114.29
"2007-03-01",134.6069,113.04
"2007-03-02",134.7031,112.33
"2007-03-05",133.0602,111.34
"2007-03-06",133.5173,112.23
"2007-03-07",134.3348,112.56
"2007-03-08",136.288,114.25
"2007-03-09",136.6509,114.45
"2007-03-12",136.1594,113.75
"2007-03-13",134.8381,112.44
"2007-03-14",131.6651,109.51
"2007-03-15",133.9674,111.6
"2007-03-16",134.0513,111.6
"2007-03-19",135.6669,113.38
"2007-03-20",136.5277,114.04
"2007-03-21",136.9662,114.12
"2007-03-22",138.7039,116.54
"2007-03-23",139.8264,117.18
"2007-03-26",138.8968,115.95
"2007-03-27",138.6251,116.29
"2007-03-28",138.0131,115.65
"2007-03-29",139.9954,117.06
"2007-03-30",139.9804,117.11
"2007-04-02",140.8226,117.38
"2007-04-03",142.2098,118.87
"2007-04-04",142.953,119.29
"2007-04-05",142.9022,119.59
"2007-04-05",142.9022,119.59
"2007-04-05",142.9022,119.59
"2007-04-10",143.5117,120.34
"2007-04-11",143.2645,120.16
"2007-04-12",142.8015,119.76
"2007-04-13",144.0049,120.87
"2007-04-16",145.2763,122.47
"2007-04-17",145.0372,122.58
"2007-04-18",143.9939,121.87
"2007-04-19",143.9255,121.35
"2007-04-20",145.3436,123.52
"2007-04-23",145.4471,123.12
"2007-04-24",144.1809,122.16
"2007-04-25",145.4886,123.12
"2007-04-26",145.9846,123.31
"2007-04-27",145.458,122.46
"2007-04-30",145.4205,122.72
"2007-04-30",145.4205,122.72
"2007-05-02",145.9757,123.34
"2007-05-03",146.4798,123.75
"2007-05-04",147.9657,124.41
"2007-05-07",148.0636,124.39
"2007-05-08",146.4568,123.51
"2007-05-09",146.4162,123.9
"2007-05-10",145.5592,122.95
"2007-05-11",146.3547,123.7
"2007-05-14",146.2616,123.48
"2007-05-15",147.3206,124.23
"2007-05-16",147.1808,123.46
"2007-05-17",147.7115,123.77
"2007-05-18",149.2072,125.42
"2007-05-21",149.6666,125.15
"2007-05-22",150.086,125.31
"2007-05-23",150.8573,126.12
"2007-05-24",150.0672,124.86
"2007-05-25",150.1678,125.1
"2007-05-28",150.4485,125.33
"2007-05-29",150.8536,125.25
"2007-05-30",150.2761,125.03
"2007-05-31",152.101,126.39
"2007-06-01",153.9384,127.65
"2007-06-04",153.433,127.28
"2007-06-05",152.3715,126.74
"2007-06-06",149.4223,124.75
"2007-06-07",148.1181,123.17
"2007-06-08",147.6857,123.07
"2007-06-11",149.0627,124.07
"2007-06-12",148.1959,123.16
"2007-06-13",148.5897,123.83
"2007-06-14",151.6211,126.26
"2007-06-15",153.4997,128.07
"2007-06-18",153.2181,127.57
"2007-06-19",152.6444,127.56
"2007-06-20",153.2412,128.06
"2007-06-21",151.7976,126.58
"2007-06-22",151.5601,126.14
"2007-06-25",150.7914,125.89
"2007-06-26",149.8403,124.74
"2007-06-27",149.0034,124.08
"2007-06-28",150.7079,125.47
"2007-06-29",151.3067,126.46
"2007-07-02",151.2872,126.11
"2007-07-03",152.5192,127.2
"2007-07-04",153.3275,127.5
"2007-07-05",152.1195,126.63
"2007-07-06",153.0256,127.65
"2007-07-09",153.3004,127.91
"2007-07-10",151.6222,126.35
"2007-07-11",150.7098,125.68
"2007-07-12",152.9803,127.76
"2007-07-13",153.374,128.4
"2007-07-16",153.5822,128.64
"2007-07-17",152.8279,128.06
"2007-07-18",151.3104,126.17
"2007-07-19",152.6539,127.57
"2007-07-20",151.0509,125.47
"2007-07-23",152.0357,126.6
"2007-07-24",150.1625,124.57
"2007-07-25",148.0063,123.22
"2007-07-26",144.0393,120.23
"2007-07-27",143.0877,119.76
"2007-07-30",143.1588,119.68
"2007-07-31",146.2472,121.82
"2007-08-01",143.546,119.86
"2007-08-02",144.6709,121.02
"2007-08-03",142.8798,119.55
"2007-08-06",141.5744,118.35
"2007-08-07",142.8503,120.26
"2007-08-08",145.8193,122.68
"2007-08-09",143.4177,120.1
"2007-08-10",139.3212,117.24
"2007-08-13",142.125,119.61
"2007-08-14",141.0308,118.06
"2007-08-15",140.7549,117.66
"2007-08-16",136.0827,114.11
"2007-08-17",137.9015,116.63
"2007-08-20",139.1483,117.14
"2007-08-21",139.5627,117.2
"2007-08-22",141.8489,118.79
"2007-08-23",141.8144,118.81
"2007-08-24",142.8839,119.48
"2007-08-27",143.0102,119.45
"2007-08-28",140.6651,117.53
"2007-08-29",141.5076,118.22
"2007-08-30",143.4093,119.75
"2007-08-31",145.0112,121.31
"2007-09-03",145.3387,121.37
"2007-09-04",145.8502,122.21
"2007-09-05",143.2161,119.92
"2007-09-06",143.7631,120.56
"2007-09-07",140.6162,117.96
"2007-09-10",139.8128,117.13
"2007-09-11",141.6808,118.85
"2007-09-12",142.0613,119.2
"2007-09-13",142.9849,120.64
"2007-09-14",142.5577,119.93
"2007-09-17",141.0899,118.8
"2007-09-18",143.5769,121.06
"2007-09-19",146.8969,124.7
"2007-09-20",146.2305,124.25
"2007-09-21",146.6496,124.61
"2007-09-24",147.234,124.42
"2007-09-25",145.813,123.38
"2007-09-26",147.0982,124.3
"2007-09-27",147.5796,124.89
"2007-09-28",147.0449,124.77
"2007-10-01",148.1013,125.46
"2007-10-02",148.8136,125.62
"2007-10-03",149.1265,125.27
"2007-10-04",148.7088,125.14
"2007-10-05",150.0051,126.16
"2007-10-08",149.6304,125.62
"2007-10-09",150.5925,126.06
"2007-10-10",150.9568,126.01
"2007-10-11",151.9415,126.92
"2007-10-12",151.9396,127.09
"2007-10-15",149.7979,126.27
"2007-10-16",149.2246,125.99
"2007-10-17",150.4321,126.54
"2007-10-18",149.9413,125.92
"2007-10-19",149.4068,125.63
"2007-10-22",147.7109,123.99
"2007-10-23",148.8438,124.56
"2007-10-24",147.8817,124.08
"2007-10-25",149.5196,125.46
"2007-10-26",150.2611,126.37
"2007-10-29",151.0578,127.36
"2007-10-30",150.5245,126.86
"2007-10-31",151.6664,127.45
"2007-11-01",149.4266,125.17
"2007-11-02",149.0591,125.12
"2007-11-05",148.4484,124.7
"2007-11-06",149.0443,125.1
"2007-11-07",148.3165,125.16
"2007-11-08",147.524,124.3
"2007-11-09",145.4809,122.49
"2007-11-12",146.074,122.32
"2007-11-13",146.212,122.38
"2007-11-14",146.8854,123.05
"2007-11-15",145.707,122.09
"2007-11-16",144.8236,121.68
"2007-11-19",142.5532,120.36
"2007-11-20",143.7095,121.7
"2007-11-21",140.6164,119.85
"2007-11-22",140.9755,120.16
"2007-11-23",142.5808,121.48
"2007-11-26",141.9598,120.67
"2007-11-27",141.4442,120.17
"2007-11-28",144.5023,122.62
"2007-11-29",144.958,123.33
"2007-11-30",146.2546,124.51
"2007-12-03",145.5439,123.92
"2007-12-04",143.7206,123.15
"2007-12-05",145.879,125.07
"2007-12-06",145.7686,125.21
"2007-12-07",146.9204,126.12
"2007-12-10",148.085,126.4
"2007-12-11",147.7833,126.08
"2007-12-12",147.9831,126.61
"2007-12-13",145.0186,124.05
"2007-12-14",145.5868,124.47
"2007-12-17",143.2733,122.68
"2007-12-18",143.2981,122.52
"2007-12-19",142.6108,122.47
"2007-12-20",142.8406,122.93
"2007-12-21",144.7334,124.83
"2007-12-24",145.1574,124.94
"2007-12-24",145.1574,124.94
"2007-12-24",145.1574,124.94
"2007-12-27",145.074,125.39
"2007-12-28",144.927,125.37
"2007-12-31",144.5799,125.31
"2007-12-31",144.5799,125.31
"2008-01-02",143.0711,123.77
"2008-01-03",142.0771,123.75
"2008-01-04",139.6026,122.22
"2008-01-07",139.5911,122.66
"2008-01-08",140.2899,122.96
"2008-01-09",138.5817,121.96
"2008-01-10",137.3424,121.26
"2008-01-11",136.7625,120.78
"2008-01-14",137.1126,120.98
"2008-01-15",133.2852,118.36
"2008-01-16",131.5562,117.14
"2008-01-17",130.7312,116.03
"2008-01-18",128.9219,113.97
"2008-01-21",121.3818,105.9
"2008-01-22",122.9126,107.06
"2008-01-23",118.68,102.34
"2008-01-24",125.9262,108.63
"2008-01-25",125.8325,108
"2008-01-28",124.8235,107.81
"2008-01-29",127.2962,108.87
"2008-01-30",126.0119,108.15
"2008-01-31",125.5021,108.1
"2008-02-01",127.7572,110
"2008-02-04",128.3173,110.13
"2008-02-05",123.4276,106.21
"2008-02-06",124.6742,107.47
"2008-02-07",122.333,105.79
"2008-02-08",122.2285,105.87
"2008-02-11",121.2902,105.29
"2008-02-12",125.1628,108.67
"2008-02-13",125.8033,108.68
"2008-02-14",125.9018,108.72
"2008-02-15",123.4909,106.51
"2008-02-18",125.7014,108.54
"2008-02-19",126.3607,108.93
"2008-02-20",124.5539,107.61
"2008-02-21",125.2114,108.21
"2008-02-22",123.821,107.29
"2008-02-25",125.7058,108.79
"2008-02-26",127.3411,110.26
"2008-02-27",126.9499,110.15
"2008-02-28",124.7279,108.14
"2008-02-29",123.1286,106.56
"2008-03-03",121.3565,105.26
"2008-03-04",119.2978,103.66
"2008-03-05",121.5186,105.55
"2008-03-06",119.7604,103.92
"2008-03-07",118.4473,102.73
"2008-03-10",117.0314,101.93
"2008-03-11",118.5448,103.54
"2008-03-12",119.6211,104.67
"2008-03-13",118.8192,103.27
"2008-03-14",118.0567,102.4
"2008-03-17",113.7972,98.76
"2008-03-18",116.8205,102.08
"2008-03-19",115.4587,101.38
"2008-03-20",114.9189,100.44
"2008-03-20",114.9189,100.44
"2008-03-20",114.9189,100.44
"2008-03-25",118.9341,103.7
"2008-03-26",118.5947,103.29
"2008-03-27",119.9398,104.41
"2008-03-28",119.3458,104.15
"2008-03-31",118.9285,103.85
"2008-04-01",123.2025,106.94
"2008-04-02",124.413,108.14
"2008-04-03",123.2815,107.72
"2008-04-04",124.0307,108.3
"2008-04-07",125.1954,109.22
"2008-04-08",123.8888,108.84
"2008-04-09",122.9693,108.07
"2008-04-10",122.5814,107.75
"2008-04-11",121.1235,106.13
"2008-04-14",119.904,105.39
"2008-04-15",120.4098,105.99
"2008-04-16",122.6524,107.6
"2008-04-17",122.1963,106.94
"2008-04-18",124.7982,109.15
"2008-04-21",123.4645,108.21
"2008-04-22",122.6296,107.37
"2008-04-23",123.4832,108.19
"2008-04-24",123.0211,108
"2008-04-25",124.4927,108.91
"2008-04-28",125.0909,109.48
"2008-04-29",124.1405,109.22
"2008-04-30",125.0734,110.06
"2008-04-30",125.0734,110.06
"2008-05-02",127.735,111.39
"2008-05-05",127.4897,111.36
"2008-05-06",126.5132,110.71
"2008-05-07",127.9555,111.46
"2008-05-08",127.5503,111.01